Weather History for Ostrava, Czech Republic

Change the Weather History Date:

Friday, May 24, 2013

  Actual Average (EPKT) Record (EPKT)
Temperature  
Mean Temperature 49 °F -  
Max Temperature 52 °F 70 °F 78 °F (2011)
Min Temperature 46 °F 50 °F 35 °F (2001)
Degree Days  
Heating Degree Days 16    
Moisture  
Dew Point 43 °F    
Average Humidity 79    
Maximum Humidity 87    
Minimum Humidity 66    
Precipitation  
Precipitation 0.00 in 0.13 in - ()
Sea Level Pressure  
Sea Level Pressure 29.74 in    
Wind  
Wind Speed 6 mph ()    
Max Wind Speed 10 mph    
Max Gust Speed -    
Visibility 6.7 miles    
Events Rain    
Averages and records for this station are not official NWS values.
T = Trace of Precipitation, MM = Missing Value Source: Averaged Metar Reports

Daily Weather History Graph

Daily Weather History Graph

Search for Another Location

Airport:

Trip Planner

Search our weather history database for the weather conditions in past years. The results will help you decide how hot, cold, wet, or windy it might be!

Date:

Astronomy

May. 24, 2013 Rise Set
Actual Time 4:51 AM CEST 8:37 PM CEST
Civil Twilight 4:11 AM CEST 9:18 PM CEST
Nautical Twilight 3:15 AM CEST 10:14 PM CEST
Astronomical Twilight 1:51 AM CEST 11:41 PM CEST
Moon 7:55 PM CEST (5/24) 4:15 AM CEST (5/24)
Length of Visible Light 17h 07m
Length of Day
15h 45m
Waxing Gibbous, 99% of the Moon is Illuminated
May 24
Waxing Gibbous
May 25
Full
May 31
Last Quarter
Jun 8
New
Jun 16
First Quarter

Hourly Weather History & Observations

Time (CEST) Temp. Windchill Dew Point Humidity Pressure Visibility Wind Dir Wind Speed Gust Speed Precip Events Conditions
12:00 AM 48.2 °F - 41.0 °F 76% 29.71 in 6.2 mi North 9.2 mph - N/A   Overcast
12:30 AM 46.4 °F 42.4 °F 41.0 °F 81% 29.71 in 6.2 mi North 8.1 mph - N/A   Overcast
1:00 AM 46.4 °F 42.4 °F 41.0 °F 81% 29.71 in 6.2 mi North 8.1 mph - N/A   Overcast
1:30 AM 46.4 °F 42.4 °F 41.0 °F 81% 29.68 in 6.2 mi North 8.1 mph - N/A   Overcast
2:00 AM 47 °F - 41 °F 74% 29.73 in 16 mi North 6.7 mph - -   Overcast
2:00 AM 46.4 °F 42.9 °F 41.0 °F 81% 29.71 in 6.2 mi North 6.9 mph - N/A   Overcast
2:30 AM 46.4 °F 43.5 °F 42.8 °F 87% 29.71 in 6.2 mi North 5.8 mph - N/A   Overcast
3:00 AM 46.4 °F 43.5 °F 42.8 °F 87% 29.71 in 6.2 mi North 5.8 mph - N/A   Overcast
3:30 AM 46.4 °F 44.3 °F 42.8 °F 87% 29.71 in 6.2 mi North 4.6 mph - N/A   Overcast
4:00 AM 46.4 °F 43.5 °F 41.0 °F 81% 29.71 in 6.2 mi North 5.8 mph - N/A   Overcast
4:30 AM 46.4 °F 43.5 °F 41.0 °F 81% 29.68 in 6.2 mi North 5.8 mph - N/A   Overcast
5:00 AM 46.4 °F 44.3 °F 41.0 °F 81% 29.71 in 6.2 mi North 4.6 mph - N/A   Overcast
5:30 AM 46.4 °F 43.5 °F 41.0 °F 81% 29.71 in 6.2 mi North 5.8 mph - N/A   Overcast
6:00 AM 46.4 °F 42.9 °F 41.0 °F 81% 29.71 in 6.2 mi NNW 6.9 mph - N/A   Overcast
6:30 AM 46.4 °F 44.3 °F 41.0 °F 81% 29.71 in 6.2 mi North 4.6 mph - N/A   Overcast
7:00 AM 46.4 °F 43.5 °F 42.8 °F 87% 29.71 in 6.2 mi North 5.8 mph - N/A   Overcast
7:30 AM 48.2 °F - 42.8 °F 82% 29.71 in 6.2 mi North 5.8 mph - N/A   Overcast
8:00 AM 48 °F - 42 °F 71% 29.74 in 9 mi North 6.7 mph - -   Overcast
8:00 AM 48.2 °F - 41.0 °F 76% 29.71 in 6.2 mi North 5.8 mph - N/A   Overcast
8:30 AM 48.2 °F - 41.0 °F 76% 29.71 in 6.2 mi North 8.1 mph - N/A   Overcast
9:00 AM 48.2 °F - 42.8 °F 82% 29.71 in 6.2 mi North 6.9 mph - N/A Rain Light Rain
9:30 AM 48.2 °F - 41.0 °F 76% 29.71 in 6.2 mi North 9.2 mph - N/A   Overcast
10:00 AM 48.2 °F - 42.8 °F 82% 29.74 in 6.2 mi North 9.2 mph - N/A   Overcast
10:30 AM 50.0 °F - 42.8 °F 76% 29.74 in 6.2 mi North 8.1 mph - N/A   Overcast
11:00 AM 50.0 °F - 42.8 °F 76% 29.74 in 6.2 mi North 10.4 mph - N/A   Overcast
11:30 AM 50.0 °F - 42.8 °F 76% 29.74 in 6.2 mi North 10.4 mph - N/A   Overcast
12:00 PM 51.8 °F - 44.6 °F 76% 29.74 in 6.2 mi North 8.1 mph - N/A   Overcast
12:30 PM 51.8 °F - 42.8 °F 71% 29.74 in 6.2 mi North 5.8 mph - N/A   Overcast
1:00 PM 51.8 °F - 42.8 °F 71% 29.74 in 6.2 mi NE 4.6 mph - N/A   Overcast
1:30 PM 51.8 °F - 44.6 °F 76% 29.74 in 6.2 mi NNE 6.9 mph - N/A   Overcast
2:00 PM 50 °F - 42 °F 66% 29.76 in 19 mi North 8.9 mph - -   Partly Cloudy
2:00 PM 50.0 °F - 42.8 °F 76% 29.74 in 6.2 mi North 8.1 mph - N/A   Overcast
2:30 PM 50.0 °F - 42.8 °F 76% 29.74 in 6.2 mi North 8.1 mph - N/A   Overcast
3:00 PM 51.8 °F - 42.8 °F 71% 29.74 in 6.2 mi North 8.1 mph - N/A   Overcast
3:30 PM 51.8 °F - 44.6 °F 76% 29.74 in 6.2 mi NNW 5.8 mph - N/A   Overcast
4:00 PM 51.8 °F - 42.8 °F 71% 29.74 in 6.2 mi North 8.1 mph - N/A   Overcast
4:30 PM 50.0 °F - 44.6 °F 82% 29.77 in 6.2 mi North 6.9 mph - N/A   Overcast
5:00 PM 50.0 °F - 44.6 °F 82% 29.77 in 6.2 mi NNW 6.9 mph - N/A   Overcast
5:30 PM 50.0 °F - 44.6 °F 82% 29.77 in 6.2 mi North 4.6 mph - N/A   Overcast
6:00 PM 50.0 °F - 44.6 °F 82% 29.77 in 6.2 mi North 4.6 mph - N/A   Overcast
6:30 PM 51.8 °F - 44.6 °F 76% 29.77 in 6.2 mi North 3.5 mph - N/A   Overcast
7:00 PM 51.8 °F - 44.6 °F 76% 29.77 in 6.2 mi North 4.6 mph - N/A   Overcast
7:30 PM 50.0 °F - 44.6 °F 82% 29.77 in 6.2 mi NNW 6.9 mph - N/A   Overcast
8:00 PM 50 °F - 44 °F 74% 29.79 in 7 mi NNW 6.7 mph - -   Overcast
8:00 PM 50.0 °F - 44.6 °F 82% 29.77 in 6.2 mi NNW 4.6 mph - N/A   Overcast
8:30 PM 50.0 °F - 44.6 °F 82% 29.77 in 6.2 mi NNW 4.6 mph - N/A   Overcast
9:00 PM 50.0 °F - 44.6 °F 82% 29.77 in 6.2 mi North 5.8 mph - N/A   Overcast
9:30 PM 50.0 °F - 44.6 °F 82% 29.77 in 6.2 mi North 6.9 mph - N/A   Mostly Cloudy
10:00 PM 50.0 °F - 44.6 °F 82% 29.77 in 6.2 mi North 5.8 mph - N/A   Overcast
10:30 PM 48.2 °F - 44.6 °F 87% 29.77 in 6.2 mi North 4.6 mph - N/A   Overcast
11:00 PM 48.2 °F - 44.6 °F 87% 29.77 in 6.2 mi NNE 5.8 mph - N/A   Overcast
11:30 PM 48.2 °F - 44.6 °F 87% 29.77 in 6.2 mi NNE 3.5 mph - N/A   Overcast